Home > Weather > St. John's > Past weeks

Flag for Canada Weather for the Past 2 Weeks in St. John's, Newfoundland and Labrador, Canada

Now
30 °F

Passing clouds.


Feels Like: 14 °F
Forecast: N/A
Wind: 35 mph from West

Location: St. John's

Current Time: Feb 10, 2016 at 6:53:47 PM

Latest Report: Feb 10, 2016 at 5:30 PM


Visibility: 15 mi

Pressure: 29.41 "Hg

Humidity: 86%

Dew point: 27 °F

Location of St. John'sLocation

Historic Weather in St. John's — Graph

°F

St. John's Temperature Yesterday

Maximum temperature yesterday: 34 °F (at 5:30 PM)
Minimum temperature yesterday: 25 °F (at 12:30 AM)
Average temperature yesterday: 29 °F

High & Low Weather Summary for the Past Weeks

 TemperatureHumidityPressure
High55 °F (Feb 6, 5:30 AM)100% (Jan 27, 11:30 AM)30.39 "Hg (Jan 27, 11:30 AM)
Low16 °F (Feb 3, 5:30 AM)54% (Feb 3, 2:30 PM)28.69 "Hg (Jan 30, 4:30 AM)
Average30 °F84%29.81 "Hg
* Reported Jan 26 5:30 PM — Feb 10 5:30 PM, St. John's, Weather by CustomWeather, © 2016

Note: Actual official high and low records may vary slightly from our data, if they occured in-between our weather recording intervals... More about our weather records

Advertising

St. John's Weather History for the Previous 24 Hours

 ConditionsComfort  
Time TempWeatherWind HumidityBarometerVisibility
5:30 PM
Wed, Feb 10
30 °FPassing clouds.35 mph86%29.41 "Hg15 mi
4:30 PM30 °FPartly sunny.32 mph86%29.36 "Hg15 mi
3:30 PM32 °FPartly sunny.30 mph87%29.36 "Hg15 mi
2:30 PM32 °FPartly sunny.32 mph87%29.34 "Hg15 mi
1:30 PM32 °FPartly sunny.37 mph87%29.29 "Hg15 mi
12:30 PM32 °FBroken clouds.28 mph87%29.24 "Hg10 mi
11:30 AM32 °FBroken clouds.37 mph87%29.18 "Hg15 mi
10:30 AM32 °FLight rain. Ice fog.37 mph93%29.09 "Hg6 mi
9:30 AM32 °FIce fog.35 mph93%28.99 "Hg3 mi
8:30 AM32 °FLight freezing rain. Ice fog.21 mph93%28.92 "Hg1 mi
7:30 AM32 °FLight freezing rain. Ice fog.No wind93%28.89 "Hg3 mi
6:30 AM30 °FLight freezing rain. Ice fog.14 mph100%28.97 "Hg2 mi
5:30 AM30 °FLight freezing rain. Ice fog.24 mph93%29.04 "Hg1 mi
4:30 AM30 °FLight freezing rain. Ice fog.15 mph93%29.13 "Hg0 mi
3:30 AM30 °FLight freezing rain. Ice fog.15 mph93%29.24 "Hg1 mi
2:30 AM30 °FLight freezing rain. Mostly cloudy.5 mph93%29.34 "Hg10 mi
2:25 AM30 °FLight freezing rain. Mostly cloudy.5 mph93%29.35 "Hg12 mi
1:30 AM30 °FLow clouds.9 mph93%29.40 "Hg15 mi
12:30 AM32 °FLow clouds.13 mph87%29.42 "Hg15 mi
11:30 PM
Tue, Feb 9
32 °FOvercast.17 mph87%29.43 "Hg15 mi
10:30 PM32 °FOvercast.17 mph87%29.42 "Hg15 mi
9:30 PM32 °FOvercast.24 mph87%29.42 "Hg15 mi
8:30 PM32 °FOvercast.21 mph87%29.44 "Hg15 mi
7:30 PM34 °FDrizzle. Low clouds.21 mph87%29.43 "Hg12 mi
6:30 PM34 °FDrizzle. Fog.20 mph87%29.41 "Hg5 mi
Weather by CustomWeather, © 2016

See weather overviewHow to use our weather pages